Tracking 34305 objects as of 7-Jun-2026
HD Live streaming from Space Station
objects crossing your sky now

GONETS D1 7

Track GONETS D1 7 now!
10-day predictions
GONETS D1 7 is classified as:


NORAD ID: 27058
Int'l Code: 2001-058D
Perigee: 1,418.7 km
Apogee: 1,424.2 km
Inclination: 82.5 °
Period: 114.1 minutes
Semi major axis: 7792 km
RCS: 0.883 m2 (medium)
Launch date: December 28, 2001
Source: Commonwealth of Independent States (former USSR) (CIS)
Launch site: PLESETSK MISSILE AND SPACE COMPLEX (PKMTR)
Your satellite tracking list
Your tracking list is empty




NASA's NSSDC Master Catalog

Two Line Element Set (TLE):
1 27058U 01058D   26157.83651020  .00000019  00000-0  46792-4 0  9994
2 27058  82.5344 208.4703 0003525  44.1139 316.0232 12.62086696125686
Source of the keplerian elements: AFSPC